Wind_Speed
25 19 12 16 13 16 16 24 18 19 21 30 27 20 17 12 9 7 10 14 13 16 14 10 10 11 9 14 16 15 13 13 14 14 14 14 14 15 17 15 12 11 11 7
25 23 21 23 27 25 27 26 24 19 20 18 20 18 17 15 10 6 9 12 10 14 16 18 17 9 11 10 14 15 16 18 17 18 20 18 17 20 21 17 17 16 13 10
23 20 22 23 22 29 33 30 28 25 20 22 24 22 20 14 10 9 9 8 9 11 12 14 16 16 10 10 13 14 17 17 20 21 21 21 22 23 22 23 21 18 16 15
24 22 5 25 21 23 23 34 31 23 21 21 13 16 19 15 12 10 9 9 9 10 10 10 12 12 9 12 12 12 14 15 18 19 20 21 23 23 23 23 22 21 20 20
15 18 21 22 23 18 20 32 30 27 25 25 25 22 21 18 14 11 11 11 12 14 13 12 11 13 13 14 14 15 16 18 21 21 20 19 22 23 22 24 25 25 24 23
17 9 9 28 23 14 13 29 32 27 30 29 31 29 26 20 15 11 10 14 19 20 18 14 15 16 16 17 19 19 21 21 23 23 23 24 23 24 23 24 24 27 28 26
25 11 10 19 18 21 25 25 25 25 24 32 29 24 16 14 13 10 11 16 20 20 19 19 19 18 21 22 22 24 26 28 29 29 28 29 30 31 31 32 33 33 32 32
24 19 15 15 19 25 22 11 26 25 23 22 22 21 19 14 10 12 17 19 20 19 20 19 21 27 23 25 26 26 28 30 31 33 35 36 37 37 39 40 42 42 43 42
19 21 19 18 25 25 20 12 24 27 26 26 25 21 9 8 12 18 21 23 23 22 21 23 24 26 28 30 31 33 35 37 39 41 43 45 46 46 47 47 49 50 50 51
13 14 16 20 25 25 15 12 15 22 22 20 17 12 8 13 18 22 24 24 25 25 28 30 29 31 33 36 39 40 40 38 37 36 36 37 38 40 41 42 43 45 45 45
12 19 18 18 16 14 17 17 19 17 12 11 11 12 23 28 31 29 28 30 28 31 32 30 32 34 39 45 47 43 39 38 38 38 39 39 40 41 41 41 42 44 45 47
17 15 20 21 23 21 18 18 16 13 11 8 10 16 16 19 29 35 29 30 32 32 32 35 40 42 40 38 36 37 37 37 38 39 39 40 42 42 42 44 44 45 45 46
9 19 23 21 19 19 20 23 25 27 23 15 21 22 32 31 28 26 29 29 32 34 34 36 38 38 36 36 37 38 39 39 39 39 40 40 41 43 45 42 42 42 42 42
5 11 24 25 20 19 19 13 9 10 15 17 22 25 31 27 24 27 30 32 34 37 39 42 43 39 40 41 41 41 41 40 41 40 39 39 39 39 40 41 42 38 36 37
10 9 12 18 14 10 11 11 14 18 21 25 29 33 31 30 28 31 32 32 35 40 42 42 43 42 45 44 43 42 42 40 38 38 37 38 39 41 42 43 44 44 41 37
11 12 13 17 16 19 20 22 24 23 28 31 32 31 29 27 30 33 35 37 37 38 39 42 42 42 42 43 42 40 37 36 37 39 41 43 45 48 49 50 52 51 51 48
18 14 15 19 19 18 18 20 22 23 31 32 31 30 29 30 28 30 33 36 39 41 42 43 42 40 40 39 35 34 36 36 39 42 45 48 52 56 57 58 59 59 58 56
11 10 13 15 15 17 21 24 29 33 32 31 29 29 29 30 32 35 38 41 42 41 41 42 41 37 34 32 33 34 36 38 41 45 49 51 54 53 49 46 45 44 43 43
13 13 14 16 18 18 18 22 27 31 31 30 30 31 34 36 39 42 43 40 39 39 36 34 30 28 28 31 33 34 38 42 46 47 50 47 38 38 41 42 46 48 45 51
16 19 19 16 15 15 17 20 23 25 27 29 32 35 37 37 37 37 37 36 35 32 28 25 25 27 29 30 33 37 41 45 47 50 35 32 35 37 40 41 44 49 51 49
21 21 23 21 17 18 18 17 20 22 24 27 29 30 31 32 31 31 29 25 24 24 23 23 24 25 29 31 34 39 42 46 42 26 25 29 32 36 34 38 42 35 30 27
17 22 25 24 18 20 15 18 21 22 24 26 28 29 29 26 24 23 22 21 21 21 22 23 23 26 29 32 36 38 45 33 23 20 26 25 29 27 32 36 36 26 21 18
28 25 20 12 12 17 18 22 24 27 27 25 24 24 23 21 20 19 20 19 20 21 21 22 23 26 29 30 37 43 30 17 19 16 21 24 21 27 26 27 31 27 23 19
13 10 12 14 15 18 22 25 25 23 21 21 22 22 18 14 16 17 19 19 19 19 19 22 24 27 22 29 38 23 16 13 14 17 16 17 19 20 25 21 24 23 23 19
4 7 8 12 17 19 20 18 18 20 19 18 18 17 14 14 16 18 21 21 21 19 19 22 27 15 22 29 28 23 17 12 16 14 13 15 16 18 23 21 22 27 24 21
6 8 11 14 16 17 18 19 21 21 19 19 20 20 18 19 22 26 26 20 18 16 19 25 9 17 18 21 27 26 24 18 9 14 12 14 13 19 18 18 18 25 27 18
9 11 16 18 19 21 22 23 20 19 19 17 18 20 23 25 25 24 13 13 11 17 16 12 12 13 16 17 18 24 26 25 21 13 9 9 14 16 14 15 18 20 19 23
Wind_Direction
243 242 230 231 259 261 291 253 231 222 205 201 199 209 226 250 271 311 351 359 12 14 7 332 302 295 298 241 229 242 253 255 267 272 267 257 249 262 272 277 274 275 296 315
216 234 244 254 262 272 289 243 231 231 200 204 198 208 228 258 269 299 329 343 351 353 357 3 357 317 292 284 255 259 263 267 267 266 267 267 270 270 272 273 269 265 273 281
220 240 250 257 267 263 275 216 222 191 202 189 197 209 222 244 261 281 305 321 330 333 340 347 352 349 347 309 298 290 285 285 281 279 277 274 270 272 269 272 265 262 271 270
237 240 232 275 270 255 242 212 215 223 221 207 217 218 217 223 246 272 295 303 306 302 310 313 317 335 327 324 301 293 283 276 277 275 274 273 273 271 267 266 264 266 267 271
224 231 249 266 255 252 234 220 219 216 219 212 207 206 213 221 234 260 288 291 299 292 286 277 275 288 295 290 299 293 284 284 283 282 282 278 269 268 268 265 262 264 264 260
225 210 211 275 233 235 234 219 230 217 215 213 200 203 213 226 250 264 280 309 312 301 290 278 273 271 276 275 274 274 273 274 274 276 278 281 278 273 271 272 269 268 266 264
226 225 240 247 238 231 208 219 212 203 204 198 202 226 242 243 239 256 292 306 307 299 289 285 275 274 280 277 275 273 272 274 276 275 271 269 272 275 276 276 275 274 273 271
228 220 235 228 213 196 213 204 195 187 199 212 220 223 220 224 251 287 297 300 299 283 280 277 266 284 279 276 274 273 272 273 274 275 275 274 273 272 271 273 273 273 273 271
230 229 235 225 217 215 225 240 199 194 191 188 200 208 234 290 300 299 301 300 297 289 286 283 281 281 285 286 282 279 278 277 276 275 273 272 271 271 271 272 272 272 272 272
215 209 217 212 212 217 227 225 218 202 201 204 219 245 301 325 317 306 301 299 295 290 294 297 297 296 297 297 296 295 293 290 286 284 280 278 277 276 275 275 276 276 275 273
225 198 183 189 199 225 233 230 223 218 226 241 259 292 311 314 307 312 300 295 295 298 300 300 300 297 295 294 294 293 291 290 288 286 285 284 283 283 281 279 276 274 274 274
235 231 236 232 215 204 207 215 213 261 273 277 287 298 303 323 307 303 294 291 294 291 289 288 289 291 292 291 288 287 288 290 292 293 292 290 288 285 282 283 280 278 277 276
233 215 210 213 212 230 247 254 262 279 286 273 287 310 294 290 308 290 285 291 287 287 292 295 297 299 294 293 297 300 301 300 299 297 296 295 292 289 287 282 280 279 278 277
254 208 223 230 249 254 268 259 258 273 297 296 300 308 309 311 297 290 278 278 283 293 297 298 300 300 300 301 303 304 303 302 301 300 299 297 296 294 291 290 287 282 281 279
226 206 216 213 207 221 254 275 289 289 291 294 298 294 294 295 293 286 277 278 284 290 293 295 296 300 302 303 305 303 301 301 301 301 302 302 300 298 296 293 291 289 285 280
233 243 252 250 249 271 257 264 286 286 290 289 288 287 286 280 279 278 281 284 285 287 291 294 296 298 300 300 300 300 300 301 302 301 300 298 297 295 293 290 287 285 283 281
256 243 247 249 271 274 275 268 266 266 270 272 271 274 272 278 278 282 287 290 293 295 295 294 296 297 297 296 296 297 298 299 299 300 301 301 300 297 294 292 289 288 286 281
237 251 265 270 273 273 268 267 267 267 268 269 266 276 284 282 282 286 288 292 291 291 291 292 294 294 294 294 296 298 300 303 304 304 304 304 304 303 301 298 294 293 290 286
231 240 253 252 251 257 265 261 259 259 258 263 270 275 280 279 283 285 287 288 288 288 290 292 292 295 293 296 299 302 305 305 306 306 309 308 306 306 306 304 300 297 293 295
241 233 234 240 251 256 257 264 267 268 272 275 275 274 277 280 282 284 285 286 288 291 295 296 296 300 298 302 305 307 307 308 309 311 309 311 317 315 310 308 304 299 293 291
248 253 251 247 255 270 283 278 274 278 280 280 281 282 284 286 288 289 289 288 290 298 298 300 303 301 305 306 309 311 310 312 314 311 315 320 320 322 332 332 326 317 306 299
261 254 259 254 268 272 278 287 287 288 293 292 288 288 290 293 293 296 297 298 299 300 301 305 306 306 309 312 313 314 317 314 309 306 314 323 332 343 338 340 339 337 334 316
264 231 238 245 261 270 287 293 291 292 294 294 291 290 292 290 292 295 296 299 302 304 302 298 304 314 316 319 322 321 319 312 313 318 328 336 338 344 344 353 360 9 10 5
171 181 213 236 261 275 282 284 284 286 290 290 293 298 299 283 287 298 303 301 304 306 305 307 316 317 326 329 332 336 321 323 323 320 329 347 347 354 345 348 1 2 10 3
183 222 261 284 283 280 278 281 291 299 302 299 294 295 291 287 293 302 308 300 305 313 310 318 323 337 351 345 346 2 357 346 327 331 341 351 354 348 354 9 7 15 24 30
328 322 306 297 295 296 296 296 298 300 299 296 293 291 288 293 293 302 305 298 309 309 310 329 353 355 357 354 357 14 10 358 359 350 346 353 352 354 357 22 22 22 28 40
334 331 325 314 306 302 299 299 300 298 299 295 291 290 286 289 295 293 274 295 293 288 296 319 339 3 3 7 8 13 23 24 21 23 360 1 5 5 7 20 26 34 36 47
Height
3175 3176 3178 3178 3180 3181 3183 3183 3182 3184 3186 3188 3192 3196 3198 3200 3201 3203 3203 3202 3202 3202 3202 3202 3203 3204 3205 3205 3205 3203 3203 3202 3202 3201 3201 3200 3200 3200 3199 3200 3198 3197 3196 3194
3170 3171 3174 3174 3174 3175 3176 3177 3178 3180 3182 3187 3191 3194 3195 3195 3197 3199 3199 3200 3200 3200 3200 3199 3198 3198 3199 3199 3199 3199 3198 3197 3197 3196 3196 3196 3196 3197 3196 3195 3194 3193 3192 3191
3164 3168 3169 3168 3170 3170 3168 3170 3173 3174 3179 3182 3185 3188 3191 3192 3193 3194 3195 3196 3196 3197 3197 3196 3196 3196 3195 3195 3194 3193 3192 3191 3191 3191 3191 3192 3192 3190 3189 3189 3189 3189 3187 3187
3159 3162 3164 3163 3164 3165 3163 3164 3168 3172 3174 3177 3180 3184 3187 3189 3189 3190 3191 3191 3192 3193 3194 3193 3192 3192 3192 3192 3190 3189 3188 3188 3187 3187 3186 3185 3185 3183 3183 3182 3182 3183 3183 3181
3154 3156 3157 3158 3158 3161 3159 3162 3165 3167 3170 3174 3177 3180 3183 3185 3186 3187 3188 3189 3189 3189 3189 3189 3189 3189 3188 3188 3187 3186 3185 3183 3181 3181 3180 3179 3178 3177 3177 3176 3175 3175 3175 3175
3149 3151 3153 3152 3155 3156 3156 3156 3159 3163 3167 3170 3174 3175 3177 3181 3183 3185 3186 3186 3186 3187 3186 3186 3185 3184 3183 3182 3181 3180 3180 3179 3177 3176 3174 3173 3172 3171 3171 3170 3169 3168 3168 3168
3144 3147 3148 3148 3149 3151 3153 3156 3157 3161 3164 3168 3171 3174 3176 3178 3180 3181 3181 3182 3182 3182 3181 3180 3180 3179 3178 3176 3175 3173 3172 3170 3169 3167 3167 3166 3165 3163 3161 3161 3160 3159 3159 3159
3139 3142 3145 3146 3147 3147 3150 3151 3155 3159 3163 3167 3170 3172 3173 3175 3175 3175 3176 3176 3175 3175 3176 3176 3174 3173 3171 3169 3168 3167 3166 3164 3162 3159 3157 3155 3154 3153 3151 3150 3148 3148 3147 3147
3137 3138 3140 3141 3144 3146 3148 3151 3153 3156 3159 3163 3167 3170 3170 3171 3171 3171 3171 3171 3170 3171 3170 3169 3167 3165 3163 3161 3159 3158 3156 3154 3152 3149 3146 3144 3141 3140 3139 3137 3135 3134 3132 3131
3134 3134 3136 3138 3141 3143 3145 3148 3151 3155 3159 3161 3163 3164 3164 3166 3168 3169 3168 3165 3164 3163 3162 3160 3159 3156 3153 3151 3147 3145 3142 3140 3138 3136 3135 3133 3129 3127 3124 3123 3120 3118 3116 3115
3133 3134 3134 3136 3139 3142 3144 3147 3149 3152 3154 3155 3156 3158 3159 3160 3159 3162 3161 3158 3156 3154 3151 3150 3148 3146 3143 3139 3136 3134 3131 3130 3128 3125 3123 3120 3118 3115 3112 3111 3107 3105 3104 3101
3131 3135 3136 3136 3137 3140 3142 3144 3146 3148 3149 3152 3152 3153 3153 3152 3154 3157 3153 3151 3149 3149 3147 3144 3140 3137 3133 3129 3127 3124 3122 3119 3116 3113 3110 3106 3103 3100 3099 3095 3093 3091 3089 3087
3129 3131 3132 3134 3135 3136 3137 3139 3143 3143 3145 3147 3147 3145 3150 3146 3146 3147 3147 3145 3145 3143 3138 3134 3128 3126 3123 3120 3117 3114 3110 3107 3103 3100 3096 3093 3090 3086 3081 3083 3079 3077 3074 3072
3127 3130 3131 3132 3133 3134 3135 3136 3137 3139 3140 3142 3143 3140 3142 3138 3137 3138 3139 3138 3136 3132 3127 3123 3119 3117 3113 3110 3106 3103 3099 3095 3091 3088 3085 3081 3077 3074 3070 3065 3062 3063 3061 3058
3126 3127 3129 3130 3129 3130 3131 3132 3133 3135 3136 3136 3136 3137 3135 3132 3132 3131 3131 3129 3126 3123 3118 3113 3109 3107 3103 3099 3096 3092 3088 3085 3081 3077 3074 3070 3066 3061 3057 3053 3048 3045 3046 3047
3123 3124 3124 3125 3127 3127 3128 3129 3128 3130 3133 3129 3127 3131 3129 3127 3126 3125 3122 3119 3117 3114 3108 3105 3100 3098 3095 3090 3086 3083 3079 3075 3070 3066 3062 3058 3053 3047 3042 3037 3032 3029 3026 3027
3116 3117 3119 3120 3121 3120 3120 3121 3121 3123 3124 3122 3122 3123 3123 3121 3118 3116 3113 3110 3106 3103 3098 3094 3090 3090 3086 3083 3078 3074 3070 3066 3062 3056 3050 3044 3038 3031 3025 3018 3013 3009 3006 3006
3109 3112 3113 3114 3115 3115 3115 3116 3116 3117 3117 3117 3117 3116 3114 3112 3110 3107 3105 3101 3096 3092 3089 3085 3083 3081 3076 3073 3069 3065 3060 3055 3050 3044 3037 3030 3022 3014 3006 2999 2994 2988 2986 2984
3103 3106 3108 3110 3111 3112 3112 3111 3110 3110 3110 3109 3108 3107 3106 3103 3100 3097 3094 3090 3087 3082 3081 3078 3074 3071 3068 3064 3060 3056 3050 3043 3038 3031 3024 3016 3009 3003 2996 2989 2982 2975 2968 2965
3098 3100 3101 3103 3104 3105 3105 3105 3105 3104 3103 3102 3100 3099 3097 3094 3091 3087 3083 3081 3077 3074 3072 3070 3068 3064 3060 3056 3051 3045 3039 3032 3025 3018 3011 3006 3000 2993 2986 2977 2968 2958 2950 2944
3092 3093 3094 3095 3097 3098 3097 3097 3096 3095 3094 3093 3091 3089 3086 3084 3080 3077 3075 3072 3070 3068 3066 3063 3060 3056 3052 3048 3042 3036 3029 3021 3014 3008 3004 2999 2993 2986 2977 2967 2954 2942 2935 2930
3086 3086 3087 3089 3090 3090 3090 3089 3089 3088 3087 3085 3082 3080 3078 3075 3072 3070 3068 3067 3065 3063 3060 3057 3054 3050 3045 3040 3034 3027 3019 3011 3006 3002 2999 2994 2988 2980 2972 2961 2949 2938 2930 2926
3076 3080 3083 3083 3084 3085 3084 3085 3083 3082 3079 3077 3075 3073 3071 3069 3067 3066 3064 3062 3060 3057 3054 3051 3047 3044 3039 3033 3026 3017 3008 3004 3001 2998 2994 2990 2984 2978 2970 2962 2952 2942 2934 2927
3073 3076 3079 3080 3080 3080 3080 3079 3076 3075 3073 3071 3069 3066 3064 3063 3062 3061 3059 3056 3054 3051 3048 3045 3043 3039 3034 3027 3019 3009 3002 3000 2999 2994 2992 2988 2982 2976 2970 2964 2955 2945 2938 2932
3075 3076 3076 3076 3076 3075 3074 3072 3070 3068 3067 3065 3062 3061 3060 3059 3058 3057 3055 3052 3049 3047 3045 3042 3040 3036 3030 3024 3014 3006 2999 2997 2996 2993 2990 2987 2982 2977 2972 2964 2959 2952 2944 2938
3074 3074 3074 3072 3071 3069 3068 3066 3064 3063 3062 3060 3058 3057 3056 3054 3052 3051 3049 3046 3045 3044 3042 3040 3037 3032 3029 3023 3015 3005 3001 2997 2993 2992 2990 2987 2982 2979 2974 2968 2963 2958 2952 2947
3073 3072 3069 3067 3065 3063 3061 3059 3058 3057 3055 3054 3053 3051 3049 3048 3046 3044 3042 3042 3042 3041 3039 3037 3036 3032 3027 3022 3017 3011 3005 3000 2995 2991 2989 2986 2983 2980 2976 2972 2968 2964 2960 2956